NOAA 16 DEB, 41046

Orbit data source: Space-Track

NOAA 16 DEB, 41046 is space debris in SSO originally from a launch on Thu, 21 Sep 2000 UTC launched from the Air Force Western Test Range (AFWTR). Debris objects in space refer to the collection of defunct objects orbiting the Earth. Examples of debris include non-operational satellites, rocket bodies, and fragments generated from explosions, collisions, or faulty payload assembly.

Loading next visibility...
Identifier
41046, 2000-055D
Orbit
SSO
Country
Flag of USUS
Related business
Manufacturer
Unknown
Mission
Spacecraft
Bus & Motor
Unknown
Mass
Unknown
Launch date (UTC)
2000-09-21 (26 years ago)
Launch vehicle
Unknown
Launch site
Air Force Western Test Range (AFWTR)
Object type
Payload
Rocket body
Debris
Shape & HBR
Unknown shape, 0.1 m
Radar Cross Section
Small (<0.1 m²)

Expand to show TLE details & history
Last TLE update: 8 hours ago

TLE from 8 hours ago
0 NOAA 16 DEB
1 41046U 00055D   26124.17376926  .00000710  00000-0  36086-3 0  9995
2 41046  98.6194 190.0902 0014298  89.5808 270.7007 14.18951233539240
Epoch: 2026-05-04T04:10Z
TLE epoch observation values (Epoch: 2026-05-04T04:10:13.664Z)
Latitude
0.00005°
Longitude
-94.5335°
Altitude
831.706 km
Speed
7.437 km/s
True Right ascension
12h 40m 21s
True Declination
0° 00' 00"
Sunlit
Object was in full shadow at epoch
Visualization orbit readout
Latitude
Unknown
Longitude
Unknown
Altitude
Unknown
Speed
Unknown
Apparent Right ascension
Unknown
Apparent Declination
Unknown
Sunlit
N/A
Visualization observer readout
Local Sidereal Time
19:36:28
Azimuth
Unknown
Elevation
Unknown
Doppler factor
Unknown
Orbital elements
Apogee altitude
836.358 km
Perigee altitude
815.757 km
Semi-major axis
7,204.195 km
Eccentricity
0.00143
Inclination
98.6194°
RAAN
190.0902°
Arg. of periapsis
89.5808°
True anomaly
270.53687°
Mean anomaly
270.7007°
Eccentric anomaly
270.61878°
Mean motion
3.54948 °/min
Orbital period
101.42 mins
BSTAR
0.00036086
Loading maneuver chart data...
Computing Atmospheric mass density...
Loading historical data...
Loading historical data...
Loading historical data...
Loading historical data...
Loading historical data...
Loading historical data...
Loading historical data...

Documentation

Showing up to 5 results
|